Date,TemperatureHighF,TemperatureAvgF,TemperatureLowF,DewpointHighF,DewpointAvgF,DewpointLowF,HumidityHigh,HumidityAvg,HumidityLow,PressureMaxIn,PressureMinIn,WindSpeedMaxMPH,WindSpeedAvgMPH,GustSpeedMaxMPH,PrecipitationSumIn
2013-8-1,80,70,60,68,63,55,98,79,45,0.00,40.00,12,6,18,0.00
2013-8-2,73,64,54,70,61,53,97,91,74,0.00,40.00,14,6,21,1.10
2013-8-3,81,70,61,66,60,55,98,73,43,0.00,40.00,11,5,16,0.00
2013-8-4,75,65,53,60,56,52,97,74,47,0.00,40.00,12,6,19,0.00
2013-8-5,74,64,54,63,58,52,97,82,47,0.00,40.00,6,3,9,0.00
2013-8-6,78,69,63,69,65,62,97,86,65,0.00,40.00,12,5,16,2.24
2013-8-7,82,72,65,76,70,64,98,93,67,0.00,40.00,13,5,17,3.94
2013-8-8,74,71,67,71,68,65,97,90,78,0.00,40.00,12,6,17,0.00
2013-8-9,81,71,63,68,62,52,96,77,44,0.00,40.00,8,5,12,0.00
2013-8-10,81,71,62,66,64,61,97,80,58,0.00,40.00,11,5,15,0.00
2013-8-11,83,69,55,66,60,54,98,77,42,0.00,40.00,9,3,12,0.00
2013-8-12,82,70,64,74,66,63,97,88,63,0.00,40.00,9,4,12,0.00
2013-8-13,69,62,53,68,53,-100,98,78,49,0.00,40.00,15,7,22,0.00
2013-8-14,73,57,45,54,49,45,98,77,41,0.00,40.00,11,5,16,0.00
2013-8-15,77,54,46,57,36,-100,98,72,38,0.00,40.00,9,2,11,0.00
2013-8-16,81,64,52,59,49,-100,98,68,35,0.00,40.00,9,3,12,0.00
2013-8-17,81,65,50,63,56,49,98,76,43,0.00,40.00,12,5,16,0.00
2013-8-18,84,67,55,67,56,-100,98,74,38,0.00,40.00,9,4,12,0.00
2013-8-19,85,64,55,65,46,-100,97,76,44,0.00,40.00,10,3,17,0.00
2013-8-20,86,70,58,69,61,-100,98,80,48,0.00,40.00,10,4,14,0.00
2013-8-21,86,74,62,71,67,62,98,80,50,0.00,40.00,11,6,17,0.00
2013-8-22,84,73,67,72,69,67,98,88,65,0.00,40.00,9,6,15,3.30
2013-8-23,83,71,60,67,60,51,98,72,34,0.00,40.00,11,6,16,0.00
2013-8-24,85,68,53,65,56,53,98,71,34,0.00,40.00,11,4,14,0.00
2013-8-25,88,70,54,67,58,-100,98,73,42,0.00,40.00,12,5,16,0.00
2013-8-26,89,76,64,72,68,63,96,75,53,0.00,40.00,13,8,20,0.00
2013-8-27,83,75,71,76,73,71,98,93,78,0.00,40.00,14,7,19,0.55
2013-8-28,83,80,72,77,74,71,97,84,74,0.00,40.00,12,8,17,0.00
2013-8-29,90,74,65,73,68,64,98,84,48,0.00,40.00,9,4,13,0.00
2013-8-30,88,74,61,74,68,60,98,82,53,0.00,40.00,12,5,21,0.00
2013-8-31,86,76,67,74,70,66,97,81,54,0.00,40.00,11,5,17,0.00